Time,TemperatureF,DewpointF,PressureIn,WindDirection,WindDirectionDegrees,WindSpeedMPH,WindSpeedGustMPH,Humidity,HourlyPrecipIn,Conditions,Clouds,dailyrainin,SoftwareType,DateUTC
2013-03-01 04:37:00,31.6,26.7,29.56,North,-999,-999.0,-999.0,81,0.00,,,0.00,tws,2013-03-01 09:37:00,
2013-03-01 04:47:00,31.6,26.8,29.56,North,-999,-999.0,-999.0,82,0.00,,,0.00,tws,2013-03-01 09:47:00,
2013-03-01 04:52:00,31.7,26.8,29.56,North,-999,-999.0,-999.0,82,0.00,,,0.00,tws,2013-03-01 09:52:00,
2013-03-01 05:07:00,31.5,26.9,29.57,North,-999,-999.0,-999.0,82,0.00,,,0.00,tws,2013-03-01 10:07:00,
2013-03-01 05:22:00,31.3,27.1,29.57,North,-999,-999.0,-999.0,84,0.00,,,0.00,tws,2013-03-01 10:22:00,
2013-03-01 05:27:00,31.3,26.9,29.57,North,-999,-999.0,-999.0,83,0.00,,,0.00,tws,2013-03-01 10:27:00,
2013-03-01 05:37:00,31.3,26.9,29.57,North,-999,-999.0,-999.0,83,0.00,,,0.00,tws,2013-03-01 10:37:00,
2013-03-01 05:42:00,31.2,26.9,29.57,North,-999,-999.0,-999.0,83,0.00,,,0.00,tws,2013-03-01 10:42:00,
2013-03-01 05:52:00,31.1,26.9,29.58,North,-999,-999.0,-999.0,84,0.00,,,0.00,tws,2013-03-01 10:52:00,
2013-03-01 05:57:00,31.1,27.0,29.58,North,-999,-999.0,-999.0,84,0.00,,,0.00,tws,2013-03-01 10:57:00,
2013-03-01 06:02:00,31.1,27.1,29.57,North,-999,-999.0,-999.0,84,0.00,,,0.00,tws,2013-03-01 11:02:00,
2013-03-01 06:12:00,30.9,26.9,29.57,North,-999,-999.0,-999.0,85,0.00,,,0.00,tws,2013-03-01 11:12:00,
2013-03-01 06:17:00,30.8,27.0,29.57,North,-999,-999.0,-999.0,85,0.00,,,0.00,tws,2013-03-01 11:17:00,
2013-03-01 06:22:00,30.8,27.0,29.57,North,-999,-999.0,-999.0,85,0.00,,,0.00,tws,2013-03-01 11:22:00,
2013-03-01 06:27:00,30.8,27.0,29.58,North,-999,-999.0,-999.0,85,0.00,,,0.00,tws,2013-03-01 11:27:00,
2013-03-01 06:32:00,30.8,27.0,29.58,North,-999,-999.0,-999.0,85,0.00,,,0.00,tws,2013-03-01 11:32:00,
2013-03-01 06:37:00,30.8,27.2,29.58,North,-999,-999.0,-999.0,86,0.00,,,0.00,tws,2013-03-01 11:37:00,
2013-03-01 06:42:00,30.8,27.2,29.57,North,-999,-999.0,-999.0,86,0.00,,,0.00,tws,2013-03-01 11:42:00,
2013-03-01 06:47:00,30.8,27.2,29.57,North,-999,-999.0,-999.0,86,0.00,,,0.00,tws,2013-03-01 11:47:00,
2013-03-01 06:52:00,30.8,27.3,29.57,North,-999,-999.0,-999.0,86,0.00,,,0.00,tws,2013-03-01 11:52:00,
2013-03-01 07:02:00,30.8,27.3,29.57,North,-999,-999.0,-999.0,87,0.00,,,0.00,tws,2013-03-01 12:02:00,
2013-03-01 07:12:00,30.9,27.5,29.58,North,-999,-999.0,-999.0,87,0.00,,,0.00,tws,2013-03-01 12:12:00,
2013-03-01 07:17:00,30.9,27.6,29.58,North,-999,-999.0,-999.0,87,0.00,,,0.00,tws,2013-03-01 12:17:00,
2013-03-01 07:22:00,31.0,27.6,29.59,North,-999,-999.0,-999.0,86,0.00,,,0.00,tws,2013-03-01 12:22:00,
2013-03-01 07:27:00,31.2,27.8,29.59,North,-999,-999.0,-999.0,87,0.00,,,0.00,tws,2013-03-01 12:27:00,
2013-03-01 07:32:00,31.3,27.8,29.59,North,-999,-999.0,-999.0,86,0.00,,,0.00,tws,2013-03-01 12:32:00,
2013-03-01 07:37:00,31.4,27.9,29.59,North,-999,-999.0,-999.0,86,0.00,,,0.00,tws,2013-03-01 12:37:00,
2013-03-01 07:42:00,31.5,28.0,29.59,North,-999,-999.0,-999.0,86,0.00,,,0.00,tws,2013-03-01 12:42:00,
2013-03-01 07:52:00,31.7,28.2,29.59,North,-999,-999.0,-999.0,86,0.00,,,0.00,tws,2013-03-01 12:52:00,
2013-03-01 07:57:00,31.9,28.3,29.59,North,-999,-999.0,-999.0,86,0.00,,,0.00,tws,2013-03-01 12:57:00,
2013-03-01 08:02:00,31.9,28.3,29.59,North,-999,-999.0,-999.0,86,0.00,,,0.00,tws,2013-03-01 13:02:00,
2013-03-01 08:12:00,32.2,28.5,29.59,North,-999,-999.0,-999.0,86,0.00,,,0.00,tws,2013-03-01 13:12:00,
2013-03-01 08:22:00,32.5,28.6,29.60,North,-999,-999.0,-999.0,85,0.00,,,0.00,tws,2013-03-01 13:22:00,
2013-03-01 08:27:00,32.7,28.7,29.60,North,-999,-999.0,-999.0,85,0.00,,,0.00,tws,2013-03-01 13:27:00,
2013-03-01 08:32:00,32.7,28.6,29.60,North,-999,-999.0,-999.0,84,0.00,,,0.00,tws,2013-03-01 13:32:00,
2013-03-01 08:37:00,32.7,28.5,29.60,North,-999,-999.0,-999.0,84,0.00,,,0.00,tws,2013-03-01 13:37:00,
2013-03-01 08:47:00,32.8,28.7,29.60,North,-999,-999.0,-999.0,84,0.00,,,0.00,tws,2013-03-01 13:47:00,
2013-03-01 08:52:00,32.8,28.7,29.60,North,-999,-999.0,-999.0,84,0.00,,,0.00,tws,2013-03-01 13:52:00,
2013-03-01 08:57:00,32.7,28.6,29.60,North,-999,-999.0,-999.0,84,0.00,,,0.00,tws,2013-03-01 13:57:00,
2013-03-01 09:02:00,32.7,28.7,29.60,North,-999,-999.0,-999.0,85,0.00,,,0.00,tws,2013-03-01 14:02:00,
2013-03-01 09:12:00,32.9,29.0,29.60,North,-999,-999.0,-999.0,85,0.00,,,0.00,tws,2013-03-01 14:12:00,
2013-03-01 09:17:00,33.2,29.2,29.60,North,-999,-999.0,-999.0,85,0.00,,,0.00,tws,2013-03-01 14:17:00,
2013-03-01 09:27:00,33.5,29.5,29.60,North,-999,-999.0,-999.0,85,0.00,,,0.00,tws,2013-03-01 14:27:00,
2013-03-01 09:37:00,33.8,29.4,29.60,North,-999,-999.0,-999.0,84,0.00,,,0.00,tws,2013-03-01 14:37:00,
2013-03-01 09:47:00,34.0,29.6,29.60,North,-999,-999.0,-999.0,83,0.00,,,0.00,tws,2013-03-01 14:47:00,
2013-03-01 09:52:00,34.2,29.8,29.60,North,-999,-999.0,-999.0,83,0.00,,,0.00,tws,2013-03-01 14:52:00,
2013-03-01 09:57:00,34.2,29.5,29.60,North,-999,-999.0,-999.0,82,0.00,,,0.00,tws,2013-03-01 14:57:00,
2013-03-01 10:12:00,34.6,29.8,29.60,North,-999,-999.0,-999.0,82,0.00,,,0.00,tws,2013-03-01 15:12:00,
2013-03-01 10:17:00,34.9,30.0,29.60,North,-999,-999.0,-999.0,82,0.00,,,0.00,tws,2013-03-01 15:17:00,
2013-03-01 10:22:00,35.2,29.9,29.61,North,-999,-999.0,-999.0,80,0.00,,,0.00,tws,2013-03-01 15:22:00,
2013-03-01 10:32:00,35.7,30.2,29.60,North,-999,-999.0,-999.0,80,0.00,,,0.00,tws,2013-03-01 15:32:00,
2013-03-01 10:37:00,35.9,30.3,29.60,North,-999,-999.0,-999.0,79,0.00,,,0.00,tws,2013-03-01 15:37:00,
2013-03-01 10:57:00,35.6,29.7,29.61,North,-999,-999.0,-999.0,79,0.00,,,0.00,tws,2013-03-01 15:57:00,
2013-03-01 11:02:00,35.8,29.9,29.60,North,-999,-999.0,-999.0,78,0.00,,,0.00,tws,2013-03-01 16:02:00,
2013-03-01 11:12:00,35.9,29.7,29.60,North,-999,-999.0,-999.0,77,0.00,,,0.00,tws,2013-03-01 16:12:00,
2013-03-01 11:17:00,35.8,29.4,29.60,North,-999,-999.0,-999.0,77,0.00,,,0.00,tws,2013-03-01 16:17:00,
2013-03-01 11:22:00,35.8,29.4,29.61,North,-999,-999.0,-999.0,77,0.00,,,0.00,tws,2013-03-01 16:22:00,
2013-03-01 11:27:00,35.9,29.5,29.60,North,-999,-999.0,-999.0,77,0.00,,,0.00,tws,2013-03-01 16:27:00,
2013-03-01 11:37:00,36.6,30.1,29.61,North,-999,-999.0,-999.0,77,0.00,,,0.00,tws,2013-03-01 16:37:00,
2013-03-01 11:47:00,36.6,29.7,29.61,North,-999,-999.0,-999.0,75,0.00,,,0.00,tws,2013-03-01 16:47:00,
2013-03-01 12:02:00,36.1,29.0,29.61,North,-999,-999.0,-999.0,75,0.00,,,0.00,tws,2013-03-01 17:02:00,
2013-03-01 12:07:00,36.0,29.2,29.61,North,-999,-999.0,-999.0,75,0.00,,,0.00,tws,2013-03-01 17:07:00,
2013-03-01 12:12:00,36.2,29.2,29.61,North,-999,-999.0,-999.0,75,0.00,,,0.00,tws,2013-03-01 17:12:00,
2013-03-01 12:17:00,36.2,29.2,29.60,North,-999,-999.0,-999.0,75,0.00,,,0.00,tws,2013-03-01 17:17:00,
2013-03-01 12:22:00,36.4,29.5,29.60,North,-999,-999.0,-999.0,76,0.00,,,0.00,tws,2013-03-01 17:22:00,
2013-03-01 12:27:00,36.5,29.3,29.60,North,-999,-999.0,-999.0,74,0.00,,,0.00,tws,2013-03-01 17:27:00,
2013-03-01 12:32:00,36.7,29.2,29.60,North,-999,-999.0,-999.0,74,0.00,,,0.00,tws,2013-03-01 17:32:00,
2013-03-01 12:37:00,36.8,29.0,29.60,North,-999,-999.0,-999.0,73,0.00,,,0.00,tws,2013-03-01 17:37:00,
2013-03-01 12:42:00,37.0,29.0,29.60,North,-999,-999.0,-999.0,72,0.00,,,0.00,tws,2013-03-01 17:42:00,
2013-03-01 12:47:00,37.1,29.3,29.60,North,-999,-999.0,-999.0,73,0.00,,,0.00,tws,2013-03-01 17:47:00,
2013-03-01 12:52:00,37.1,29.1,29.60,North,-999,-999.0,-999.0,72,0.00,,,0.00,tws,2013-03-01 17:52:00,
2013-03-01 12:57:00,37.2,29.1,29.59,North,-999,-999.0,-999.0,72,0.00,,,0.00,tws,2013-03-01 17:57:00,
2013-03-01 13:02:00,37.3,29.6,29.59,North,-999,-999.0,-999.0,73,0.00,,,0.00,tws,2013-03-01 18:02:00,
2013-03-01 13:07:00,37.6,29.4,29.59,North,-999,-999.0,-999.0,72,0.00,,,0.00,tws,2013-03-01 18:07:00,
2013-03-01 13:12:00,37.5,28.9,29.59,North,-999,-999.0,-999.0,71,0.00,,,0.00,tws,2013-03-01 18:12:00,
2013-03-01 13:17:00,37.5,28.6,29.59,North,-999,-999.0,-999.0,69,0.00,,,0.00,tws,2013-03-01 18:17:00,
2013-03-01 13:22:00,37.6,28.8,29.59,North,-999,-999.0,-999.0,70,0.00,,,0.00,tws,2013-03-01 18:22:00,
2013-03-01 13:27:00,37.9,28.8,29.59,North,-999,-999.0,-999.0,69,0.00,,,0.00,tws,2013-03-01 18:27:00,
2013-03-01 13:32:00,38.0,28.3,29.58,North,-999,-999.0,-999.0,67,0.00,,,0.00,tws,2013-03-01 18:32:00,
2013-03-01 13:37:00,37.8,28.1,29.59,North,-999,-999.0,-999.0,67,0.00,,,0.00,tws,2013-03-01 18:37:00,
2013-03-01 13:42:00,38.1,28.5,29.58,North,-999,-999.0,-999.0,68,0.00,,,0.00,tws,2013-03-01 18:42:00,
2013-03-01 13:47:00,38.4,28.5,29.57,North,-999,-999.0,-999.0,67,0.00,,,0.00,tws,2013-03-01 18:47:00,
2013-03-01 13:52:00,38.4,28.3,29.57,North,-999,-999.0,-999.0,66,0.00,,,0.00,tws,2013-03-01 18:52:00,
2013-03-01 13:57:00,38.2,28.1,29.57,North,-999,-999.0,-999.0,66,0.00,,,0.00,tws,2013-03-01 18:57:00,
2013-03-01 14:02:00,38.2,28.2,29.57,North,-999,-999.0,-999.0,67,0.00,,,0.00,tws,2013-03-01 19:02:00,
2013-03-01 14:07:00,37.9,27.9,29.57,North,-999,-999.0,-999.0,67,0.00,,,0.00,tws,2013-03-01 19:07:00,
2013-03-01 14:12:00,38.2,28.4,29.57,North,-999,-999.0,-999.0,67,0.00,,,0.00,tws,2013-03-01 19:12:00,
2013-03-01 14:17:00,38.5,28.3,29.57,North,-999,-999.0,-999.0,66,0.00,,,0.00,tws,2013-03-01 19:17:00,
2013-03-01 14:22:00,39.1,28.8,29.57,North,-999,-999.0,-999.0,66,0.00,,,0.00,tws,2013-03-01 19:22:00,
2013-03-01 14:27:00,39.7,28.6,29.57,North,-999,-999.0,-999.0,64,0.00,,,0.00,tws,2013-03-01 19:27:00,
2013-03-01 14:32:00,39.7,28.8,29.57,North,-999,-999.0,-999.0,64,0.00,,,0.00,tws,2013-03-01 19:32:00,
2013-03-01 14:37:00,40.1,29.2,29.57,North,-999,-999.0,-999.0,64,0.00,,,0.00,tws,2013-03-01 19:37:00,
2013-03-01 14:42:00,40.4,28.9,29.57,North,-999,-999.0,-999.0,63,0.00,,,0.00,tws,2013-03-01 19:42:00,
2013-03-01 14:47:00,40.3,29.0,29.57,North,-999,-999.0,-999.0,63,0.00,,,0.00,tws,2013-03-01 19:47:00,
2013-03-01 14:52:00,40.2,28.9,29.57,North,-999,-999.0,-999.0,63,0.00,,,0.00,tws,2013-03-01 19:52:00,
2013-03-01 14:57:00,40.0,28.6,29.57,North,-999,-999.0,-999.0,63,0.00,,,0.00,tws,2013-03-01 19:57:00,
2013-03-01 15:07:00,39.9,28.4,29.57,North,-999,-999.0,-999.0,63,0.00,,,0.00,tws,2013-03-01 20:07:00,
2013-03-01 15:12:00,40.0,28.6,29.57,North,-999,-999.0,-999.0,63,0.00,,,0.00,tws,2013-03-01 20:12:00,
2013-03-01 15:17:00,39.9,28.0,29.57,North,-999,-999.0,-999.0,62,0.00,,,0.00,tws,2013-03-01 20:17:00,
2013-03-01 15:22:00,39.4,28.1,29.57,North,-999,-999.0,-999.0,63,0.00,,,0.00,tws,2013-03-01 20:22:00,
2013-03-01 15:27:00,39.5,28.3,29.57,North,-999,-999.0,-999.0,63,0.00,,,0.00,tws,2013-03-01 20:27:00,
2013-03-01 15:32:00,39.6,28.4,29.57,North,-999,-999.0,-999.0,63,0.00,,,0.00,tws,2013-03-01 20:32:00,
2013-03-01 15:37:00,39.2,27.7,29.57,North,-999,-999.0,-999.0,62,0.00,,,0.00,tws,2013-03-01 20:37:00,
2013-03-01 15:42:00,39.1,27.8,29.57,North,-999,-999.0,-999.0,63,0.00,,,0.00,tws,2013-03-01 20:42:00,
2013-03-01 15:47:00,39.3,28.1,29.57,North,-999,-999.0,-999.0,63,0.00,,,0.00,tws,2013-03-01 20:47:00,
2013-03-01 15:52:00,39.3,27.9,29.57,North,-999,-999.0,-999.0,63,0.00,,,0.00,tws,2013-03-01 20:52:00,
2013-03-01 15:57:00,39.5,28.2,29.57,North,-999,-999.0,-999.0,63,0.00,,,0.00,tws,2013-03-01 20:57:00,
2013-03-01 16:02:00,39.6,28.1,29.57,North,-999,-999.0,-999.0,63,0.00,,,0.00,tws,2013-03-01 21:02:00,
2013-03-01 16:07:00,39.3,27.9,29.57,North,-999,-999.0,-999.0,63,0.00,,,0.00,tws,2013-03-01 21:07:00,
2013-03-01 16:12:00,39.0,27.9,29.57,North,-999,-999.0,-999.0,64,0.00,,,0.00,tws,2013-03-01 21:12:00,
2013-03-01 16:17:00,38.9,28.1,29.56,North,-999,-999.0,-999.0,64,0.00,,,0.00,tws,2013-03-01 21:17:00,
2013-03-01 16:22:00,38.6,28.1,29.56,North,-999,-999.0,-999.0,65,0.00,,,0.00,tws,2013-03-01 21:22:00,
2013-03-01 16:27:00,38.4,28.3,29.56,North,-999,-999.0,-999.0,66,0.00,,,0.00,tws,2013-03-01 21:27:00,
2013-03-01 16:32:00,38.4,28.5,29.56,North,-999,-999.0,-999.0,67,0.00,,,0.00,tws,2013-03-01 21:32:00,
2013-03-01 16:37:00,38.4,28.3,29.57,North,-999,-999.0,-999.0,66,0.00,,,0.00,tws,2013-03-01 21:37:00,
2013-03-01 16:42:00,38.5,28.4,29.57,North,-999,-999.0,-999.0,66,0.00,,,0.00,tws,2013-03-01 21:42:00,
2013-03-01 16:47:00,39.0,28.5,29.57,North,-999,-999.0,-999.0,65,0.00,,,0.00,tws,2013-03-01 21:47:00,
2013-03-01 16:52:00,39.2,0.0,29.56,North,-999,-999.0,-999.0,-148,0.00,,,0.00,tws,2013-03-01 21:52:00,
2013-03-01 16:57:00,39.2,0.0,29.56,North,-999,-999.0,-999.0,-148,0.00,,,0.00,tws,2013-03-01 21:57:00,
2013-03-01 17:02:00,38.7,27.7,29.57,North,-999,-999.0,-999.0,64,0.00,,,0.00,tws,2013-03-01 22:02:00,
2013-03-01 17:07:00,38.5,27.8,29.57,North,-999,-999.0,-999.0,65,0.00,,,0.00,tws,2013-03-01 22:07:00,
2013-03-01 17:12:00,38.4,27.8,29.57,North,-999,-999.0,-999.0,65,0.00,,,0.00,tws,2013-03-01 22:12:00,
2013-03-01 17:17:00,38.3,27.8,3.66,North,-999,-999.0,-999.0,65,0.00,,,0.00,tws,2013-03-01 22:17:00,
2013-03-01 17:22:00,38.0,27.7,29.57,North,-999,-999.0,-999.0,66,0.00,,,0.00,tws,2013-03-01 22:22:00,
2013-03-01 17:27:00,37.6,27.7,29.57,North,-999,-999.0,-999.0,67,0.00,,,0.00,tws,2013-03-01 22:27:00,
2013-03-01 17:32:00,37.3,27.8,29.58,North,-999,-999.0,-999.0,68,0.00,,,0.00,tws,2013-03-01 22:32:00,
2013-03-01 17:37:00,37.2,27.9,29.58,North,-999,-999.0,-999.0,68,0.00,,,0.00,tws,2013-03-01 22:37:00,
2013-03-01 17:42:00,36.9,27.9,29.58,North,-999,-999.0,-999.0,69,0.00,,,0.00,tws,2013-03-01 22:42:00,
2013-03-01 17:47:00,36.8,27.8,29.58,North,-999,-999.0,-999.0,69,0.00,,,0.00,tws,2013-03-01 22:47:00,
2013-03-01 17:52:00,36.7,27.7,29.58,North,-999,-999.0,-999.0,69,0.00,,,0.00,tws,2013-03-01 22:52:00,
2013-03-01 17:57:00,36.5,27.7,29.59,North,-999,-999.0,-999.0,70,0.00,,,0.00,tws,2013-03-01 22:57:00,
2013-03-01 18:02:00,36.3,27.7,29.59,North,-999,-999.0,-999.0,70,0.00,,,0.00,tws,2013-03-01 23:02:00,
2013-03-01 18:07:00,36.3,27.9,29.58,North,-999,-999.0,-999.0,71,0.00,,,0.00,tws,2013-03-01 23:07:00,
2013-03-01 18:12:00,36.1,27.8,29.58,North,-999,-999.0,-999.0,71,0.00,,,0.00,tws,2013-03-01 23:12:00,
2013-03-01 18:17:00,36.0,28.0,29.59,North,-999,-999.0,-999.0,72,0.00,,,0.00,tws,2013-03-01 23:17:00,
2013-03-01 18:22:00,35.9,27.5,29.59,North,-999,-999.0,-999.0,71,0.00,,,0.00,tws,2013-03-01 23:22:00,
2013-03-01 18:27:00,35.8,27.4,29.58,North,-999,-999.0,-999.0,71,0.00,,,0.00,tws,2013-03-01 23:27:00,
2013-03-01 18:32:00,35.8,27.2,29.59,North,-999,-999.0,-999.0,70,0.00,,,0.00,tws,2013-03-01 23:32:00,
2013-03-01 18:37:00,35.8,27.3,29.59,North,-999,-999.0,-999.0,70,0.00,,,0.00,tws,2013-03-01 23:37:00,
2013-03-01 18:42:00,35.8,27.2,29.59,North,-999,-999.0,-999.0,70,0.00,,,0.00,tws,2013-03-01 23:42:00,
2013-03-01 18:47:00,35.7,27.5,29.59,North,-999,-999.0,-999.0,71,0.00,,,0.00,tws,2013-03-01 23:47:00,
2013-03-01 18:52:00,35.7,27.6,29.59,North,-999,-999.0,-999.0,72,0.00,,,0.00,tws,2013-03-01 23:52:00,
2013-03-01 18:57:00,35.6,27.7,29.59,North,-999,-999.0,-999.0,72,0.00,,,0.00,tws,2013-03-01 23:57:00,
2013-03-01 19:02:00,35.6,27.8,29.59,North,-999,-999.0,-999.0,73,0.00,,,0.00,tws,2013-03-02 00:02:00,
2013-03-01 19:07:00,35.6,27.8,29.59,North,-999,-999.0,-999.0,73,0.00,,,0.00,tws,2013-03-02 00:07:00,
2013-03-01 19:12:00,35.6,28.0,29.59,North,-999,-999.0,-999.0,73,0.00,,,0.00,tws,2013-03-02 00:12:00,
2013-03-01 19:22:00,35.5,27.9,29.60,North,-999,-999.0,-999.0,73,0.00,,,0.00,tws,2013-03-02 00:22:00,
2013-03-01 19:27:00,35.4,28.0,29.60,North,-999,-999.0,-999.0,74,0.00,,,0.00,tws,2013-03-02 00:27:00,
2013-03-01 19:32:00,35.4,28.0,29.60,North,-999,-999.0,-999.0,74,0.00,,,0.00,tws,2013-03-02 00:32:00,
2013-03-01 19:37:00,35.4,28.0,29.60,North,-999,-999.0,-999.0,74,0.00,,,0.00,tws,2013-03-02 00:37:00,
2013-03-01 19:42:00,35.2,27.8,29.60,North,-999,-999.0,-999.0,74,0.00,,,0.00,tws,2013-03-02 00:42:00,
2013-03-01 19:47:00,35.0,27.6,29.60,North,-999,-999.0,-999.0,74,0.00,,,0.00,tws,2013-03-02 00:47:00,
2013-03-01 19:52:00,34.9,27.6,29.60,North,-999,-999.0,-999.0,74,0.00,,,0.00,tws,2013-03-02 00:52:00,
2013-03-01 19:57:00,34.9,27.7,29.60,North,-999,-999.0,-999.0,74,0.00,,,0.00,tws,2013-03-02 00:57:00,
2013-03-01 20:02:00,34.9,27.6,29.60,North,-999,-999.0,-999.0,74,0.00,,,0.00,tws,2013-03-02 01:02:00,
2013-03-01 20:07:00,34.9,27.5,29.60,North,-999,-999.0,-999.0,74,0.00,,,0.00,tws,2013-03-02 01:07:00,
2013-03-01 20:12:00,34.8,27.5,29.60,North,-999,-999.0,-999.0,74,0.00,,,0.00,tws,2013-03-02 01:12:00,
2013-03-01 20:17:00,34.7,27.6,29.60,North,-999,-999.0,-999.0,75,0.00,,,0.00,tws,2013-03-02 01:17:00,
2013-03-01 20:22:00,34.6,27.7,29.61,North,-999,-999.0,-999.0,75,0.00,,,0.00,tws,2013-03-02 01:22:00,
2013-03-01 20:27:00,34.5,27.7,29.60,North,-999,-999.0,-999.0,76,0.00,,,0.00,tws,2013-03-02 01:27:00,
2013-03-01 20:32:00,34.4,27.6,29.60,North,-999,-999.0,-999.0,76,0.00,,,0.00,tws,2013-03-02 01:32:00,
2013-03-01 20:37:00,34.5,27.8,29.60,North,-999,-999.0,-999.0,76,0.00,,,0.00,tws,2013-03-02 01:37:00,
2013-03-01 20:42:00,34.5,27.9,29.61,North,-999,-999.0,-999.0,76,0.00,,,0.00,tws,2013-03-02 01:42:00,
2013-03-01 20:47:00,34.6,28.0,29.61,North,-999,-999.0,-999.0,76,0.00,,,0.00,tws,2013-03-02 01:47:00,
2013-03-01 20:52:00,34.7,28.1,29.61,North,-999,-999.0,-999.0,76,0.00,,,0.00,tws,2013-03-02 01:52:00,
2013-03-01 20:57:00,34.7,28.0,29.60,North,-999,-999.0,-999.0,76,0.00,,,0.00,tws,2013-03-02 01:57:00,
2013-03-01 21:02:00,34.8,28.1,29.60,North,-999,-999.0,-999.0,76,0.00,,,0.00,tws,2013-03-02 02:02:00,
2013-03-01 21:07:00,34.9,28.3,29.61,North,-999,-999.0,-999.0,76,0.00,,,0.00,tws,2013-03-02 02:07:00,
2013-03-01 21:12:00,34.9,28.4,29.61,North,-999,-999.0,-999.0,76,0.00,,,0.00,tws,2013-03-02 02:12:00,
2013-03-01 21:17:00,35.0,28.5,29.60,North,-999,-999.0,-999.0,77,0.00,,,0.00,tws,2013-03-02 02:17:00,
2013-03-01 21:22:00,34.9,28.3,29.61,North,-999,-999.0,-999.0,76,0.00,,,0.00,tws,2013-03-02 02:22:00,
2013-03-01 21:27:00,35.0,28.5,29.60,North,-999,-999.0,-999.0,76,0.00,,,0.00,tws,2013-03-02 02:27:00,
2013-03-01 21:32:00,34.9,28.3,29.60,North,-999,-999.0,-999.0,76,0.00,,,0.00,tws,2013-03-02 02:32:00,
2013-03-01 21:37:00,34.8,28.3,29.60,North,-999,-999.0,-999.0,76,0.00,,,0.00,tws,2013-03-02 02:37:00,
2013-03-01 21:42:00,34.7,28.3,29.60,North,-999,-999.0,-999.0,77,0.00,,,0.00,tws,2013-03-02 02:42:00,
2013-03-01 21:47:00,34.7,28.4,29.60,North,-999,-999.0,-999.0,77,0.00,,,0.00,tws,2013-03-02 02:47:00,
2013-03-01 21:52:00,34.7,28.4,29.60,North,-999,-999.0,-999.0,77,0.00,,,0.00,tws,2013-03-02 02:52:00,
2013-03-01 21:57:00,34.7,28.4,29.60,North,-999,-999.0,-999.0,77,0.00,,,0.00,tws,2013-03-02 02:57:00,
2013-03-01 22:02:00,34.7,28.4,29.60,North,-999,-999.0,-999.0,77,0.00,,,0.00,tws,2013-03-02 03:02:00,
2013-03-01 22:07:00,34.5,28.5,29.60,North,-999,-999.0,-999.0,78,0.00,,,0.00,tws,2013-03-02 03:07:00,
2013-03-01 22:12:00,34.5,28.6,29.60,North,-999,-999.0,-999.0,79,0.00,,,0.00,tws,2013-03-02 03:12:00,
2013-03-01 22:17:00,34.4,28.2,29.60,North,-999,-999.0,-999.0,78,0.00,,,0.00,tws,2013-03-02 03:17:00,
2013-03-01 22:22:00,34.4,28.2,29.60,North,-999,-999.0,-999.0,77,0.00,,,0.00,tws,2013-03-02 03:22:00,
2013-03-01 22:27:00,34.4,28.2,29.60,North,-999,-999.0,-999.0,78,0.00,,,0.00,tws,2013-03-02 03:27:00,
2013-03-01 22:32:00,34.4,28.1,29.60,North,-999,-999.0,-999.0,77,0.00,,,0.00,tws,2013-03-02 03:32:00,
2013-03-01 22:37:00,34.4,28.1,29.60,North,-999,-999.0,-999.0,77,0.00,,,0.00,tws,2013-03-02 03:37:00,
2013-03-01 22:42:00,34.4,28.1,29.60,North,-999,-999.0,-999.0,77,0.00,,,0.00,tws,2013-03-02 03:42:00,
2013-03-01 22:47:00,34.4,28.1,29.60,North,-999,-999.0,-999.0,77,0.00,,,0.00,tws,2013-03-02 03:47:00,
2013-03-01 22:52:00,34.4,28.1,29.60,North,-999,-999.0,-999.0,77,0.00,,,0.00,tws,2013-03-02 03:52:00,
2013-03-01 22:57:00,34.5,28.1,29.60,North,-999,-999.0,-999.0,77,0.00,,,0.00,tws,2013-03-02 03:57:00,
2013-03-01 23:02:00,34.6,28.1,29.59,North,-999,-999.0,-999.0,77,0.00,,,0.00,tws,2013-03-02 04:02:00,
2013-03-01 23:07:00,34.6,28.1,29.59,North,-999,-999.0,-999.0,76,0.00,,,0.00,tws,2013-03-02 04:07:00,
2013-03-01 23:12:00,34.7,28.1,29.59,North,-999,-999.0,-999.0,76,0.00,,,0.00,tws,2013-03-02 04:12:00,
2013-03-01 23:17:00,34.7,28.2,29.59,North,-999,-999.0,-999.0,76,0.00,,,0.00,tws,2013-03-02 04:17:00,
2013-03-01 23:22:00,34.5,28.2,29.59,North,-999,-999.0,-999.0,77,0.00,,,0.00,tws,2013-03-02 04:22:00,
2013-03-01 23:27:00,34.5,28.3,29.59,North,-999,-999.0,-999.0,78,0.00,,,0.00,tws,2013-03-02 04:27:00,
2013-03-01 23:32:00,34.5,28.5,29.59,North,-999,-999.0,-999.0,78,0.00,,,0.00,tws,2013-03-02 04:32:00,
2013-03-01 23:37:00,34.5,28.5,29.59,North,-999,-999.0,-999.0,78,0.00,,,0.00,tws,2013-03-02 04:37:00,
2013-03-01 23:42:00,34.3,28.5,29.59,North,-999,-999.0,-999.0,79,0.00,,,0.00,tws,2013-03-02 04:42:00,
2013-03-01 23:47:00,34.2,28.5,29.58,North,-999,-999.0,-999.0,79,0.00,,,0.00,tws,2013-03-02 04:47:00,
2013-03-01 23:52:00,34.2,28.5,29.58,North,-999,-999.0,-999.0,79,0.00,,,0.00,tws,2013-03-02 04:52:00,
2013-03-01 23:57:00,34.1,28.5,29.58,North,-999,-999.0,-999.0,79,0.00,,,0.00,tws,2013-03-02 04:57:00,